M I D A S
Marine Information and Data Acquisition System
Tripno 2205 of the Zeeleeuw from 2011-10-25 07:10:08 to 2011-10-25 15:10:04
Back to CruiseResearch ActivitiesStationsMapUnderway DataData graphs

EquipmentUnitsComments
TimeDGPSUTC
LatitudeDGPSDM.mWGS84
LongitudeDGPSDM.mWGS84
SpeedMeteo Stationm/sRelative wind speed
DirectionMeteo StationdegRelative wind direction
TemperatureMeteo Stationdeg CelciusAir temperature
PressureMeteo StationPaAtmospheric pressure
HumidityMeteo Station%Relative humidity
Missing or incorrect values are displayed as -999
Metereological data collected by the RV Zeeleeuw from 2011-10-25 06:49:53 to 2011-10-25 15:21:05
                                                                                    Next 1000 lines
Time Latitude Longitude Speed Direction Temperature Pressure Humidity
2011-10-25 06:50:04 51°13.637 2°56.018 3 343 10.6 99850 58
2011-10-25 06:50:09 51°13.637 2°56.019 2.5 340 10.6 99850 58
2011-10-25 06:50:14 51°13.637 2°56.019 2.8 337 10.6 99850 57
2011-10-25 06:50:19 51°13.637 2°56.019 2.3 340 10.6 99850 57
2011-10-25 06:50:24 51°13.637 2°56.019 1.9 336 10.7 99850 58
2011-10-25 06:50:29 51°13.637 2°56.019 3.4 341 10.7 99850 58
2011-10-25 06:50:34 51°13.637 2°56.019 3 343 10.6 99850 58
2011-10-25 06:50:40 51°13.637 2°56.018 3.1 339 10.6 99850 58
2011-10-25 06:50:44 51°13.637 2°56.018 2.7 341 10.6 99850 57
2011-10-25 06:50:49 51°13.637 2°56.018 2.9 333 10.6 99850 57
2011-10-25 06:50:54 51°13.637 2°56.019 2.7 334 10.6 99850 58
2011-10-25 06:50:59 51°13.636 2°56.019 4.2 341 10.6 99850 58
2011-10-25 06:51:04 51°13.636 2°56.018 5 337 10.6 99850 57
2011-10-25 06:51:09 51°13.636 2°56.018 5 340 10.6 99850 57
2011-10-25 06:51:14 51°13.636 2°56.018 4.9 341 10.7 99850 57
2011-10-25 06:51:18 51°13.636 2°56.018 3.3 342 10.7 99850 57
2011-10-25 06:51:24 51°13.636 2°56.018 4 346 10.7 99850 58
2011-10-25 06:51:29 51°13.636 2°56.018 5.2 341 10.7 99850 58
2011-10-25 06:51:33 51°13.636 2°56.018 4.9 344 10.7 99850 57
2011-10-25 06:51:38 51°13.636 2°56.018 3.9 338 10.7 99850 57
2011-10-25 06:51:42 51°13.636 2°56.018 2.8 340 10.7 99850 58
2011-10-25 06:51:49 51°13.636 2°56.018 2.9 342 10.7 99850 58
2011-10-25 06:51:54 51°13.636 2°56.018 3.6 346 10.6 99850 58
2011-10-25 06:51:59 51°13.636 2°56.018 3.9 346 10.6 99850 58
2011-10-25 06:52:03 51°13.636 2°56.018 3.9 341 10.6 99850 57
2011-10-25 06:52:08 51°13.636 2°56.018 4.5 345 10.6 99850 57
2011-10-25 06:52:13 51°13.636 2°56.018 3.7 346 10.6 99850 58
2011-10-25 06:52:18 51°13.636 2°56.018 3.6 338 10.6 99850 58
2011-10-25 06:52:23 51°13.636 2°56.018 5.2 337 10.6 99850 58
2011-10-25 06:52:28 51°13.636 2°56.018 4.1 340 10.6 99850 58
2011-10-25 06:52:34 51°13.636 2°56.018 3.7 338 10.6 99850 58
2011-10-25 06:52:39 51°13.636 2°56.018 4.7 342 10.6 99850 58
2011-10-25 06:52:43 51°13.636 2°56.018 4.6 340 10.7 99850 58
2011-10-25 06:52:48 51°13.636 2°56.018 4.3 345 10.7 99850 58
2011-10-25 06:52:53 51°13.636 2°56.018 4.3 348 10.7 99850 57
2011-10-25 06:52:58 51°13.636 2°56.018 3.6 340 10.7 99850 57
2011-10-25 06:53:03 51°13.636 2°56.018 4.2 342 10.6 99850 57
2011-10-25 06:53:08 51°13.636 2°56.018 3.8 339 10.6 99850 57
2011-10-25 06:53:12 51°13.636 2°56.018 3.1 339 10.6 99850 58
2011-10-25 06:53:18 51°13.636 2°56.018 2.5 329 10.6 99850 58
2011-10-25 06:53:24 51°13.636 2°56.019 2.5 330 10.6 99850 57
2011-10-25 06:53:28 51°13.636 2°56.019 2.1 334 10.6 99850 57
2011-10-25 06:53:34 51°13.636 2°56.019 2.1 338 10.6 99850 57
2011-10-25 06:53:39 51°13.636 2°56.019 3.2 339 10.6 99850 57
2011-10-25 06:53:44 51°13.636 2°56.019 2.8 338 10.7 99850 57
2011-10-25 06:53:49 51°13.636 2°56.019 3.2 331 10.7 99850 57
2011-10-25 06:53:54 51°13.636 2°56.018 2.3 326 10.7 99850 58
2011-10-25 06:54:00 51°13.636 2°56.018 3.2 331 10.7 99850 58
2011-10-25 06:54:04 51°13.636 2°56.018 3.3 342 10.6 99850 57
2011-10-25 06:54:09 51°13.636 2°56.019 3.6 345 10.6 99850 57
2011-10-25 06:54:14 51°13.636 2°56.019 4.1 347 10.6 99850 57
2011-10-25 06:54:19 51°13.636 2°56.019 3.9 343 10.6 99850 57
2011-10-25 06:54:24 51°13.636 2°56.019 3.9 343 10.6 99850 57
2011-10-25 06:54:29 51°13.636 2°56.019 3.7 342 10.6 99850 57
2011-10-25 06:54:34 51°13.636 2°56.019 3.8 339 10.7 99850 57
2011-10-25 06:54:38 51°13.636 2°56.019 3.1 340 10.7 99850 57
2011-10-25 06:54:43 51°13.636 2°56.019 3.1 340 10.7 99850 58
2011-10-25 06:54:48 51°13.636 2°56.019 3.3 338 10.7 99850 58
2011-10-25 06:54:53 51°13.636 2°56.019 3.3 337 10.7 99850 58
2011-10-25 06:54:58 51°13.636 2°56.019 2.8 340 10.7 99850 58
2011-10-25 06:55:04 51°13.636 2°56.019 3 339 10.7 99850 57
2011-10-25 06:55:08 51°13.636 2°56.019 2.4 345 10.7 99850 57
2011-10-25 06:55:13 51°13.636 2°56.019 2.8 349 10.6 99850 58
2011-10-25 06:55:19 51°13.635 2°56.018 3.1 344 10.6 99850 58
2011-10-25 06:55:24 51°13.635 2°56.018 3.3 336 10.6 99860 57
2011-10-25 06:55:29 51°13.635 2°56.018 5 341 10.6 99860 57
2011-10-25 06:55:35 51°13.635 2°56.018 4.2 334 10.7 99850 57
2011-10-25 06:55:38 51°13.635 2°56.018 3.7 335 10.7 99850 57
2011-10-25 06:55:44 51°13.635 2°56.019 4.3 340 10.7 99860 58
2011-10-25 06:55:49 51°13.635 2°56.019 4.7 342 10.7 99860 58
2011-10-25 06:55:54 51°13.635 2°56.019 5.3 344 10.7 99860 57
2011-10-25 06:55:59 51°13.635 2°56.019 3.5 338 10.7 99860 57
2011-10-25 06:56:03 51°13.635 2°56.019 3.8 339 10.7 99850 58
2011-10-25 06:56:08 51°13.635 2°56.019 4.1 343 10.7 99850 58
2011-10-25 06:56:13 51°13.635 2°56.019 4 348 10.7 99860 57
2011-10-25 06:56:18 51°13.635 2°56.019 3.5 343 10.7 99860 57
2011-10-25 06:56:23 51°13.635 2°56.019 4.1 340 10.6 99860 57
2011-10-25 06:56:28 51°13.635 2°56.019 4.9 339 10.6 99860 57
2011-10-25 06:56:33 51°13.635 2°56.019 4.7 340 10.7 99860 57
2011-10-25 06:56:38 51°13.635 2°56.019 4 344 10.7 99860 57
2011-10-25 06:56:43 51°13.634 2°56.019 3.9 337 10.6 99860 57
2011-10-25 06:56:47 51°13.634 2°56.019 4.2 336 10.6 99860 57
2011-10-25 06:56:52 51°13.634 2°56.019 4.1 338 10.6 99860 58
2011-10-25 06:56:57 51°13.633 2°56.019 4.5 334 10.6 99860 58
2011-10-25 06:57:02 51°13.631 2°56.019 4.2 335 10.6 99860 58
2011-10-25 06:57:07 51°13.63 2°56.019 4.7 337 10.6 99860 58
2011-10-25 06:57:11 51°13.63 2°56.019 4.4 343 10.6 99860 57
2011-10-25 06:57:17 51°13.629 2°56.02 5.3 342 10.6 99860 57
2011-10-25 06:57:22 51°13.629 2°56.02 5.2 340 10.7 99860 57
2011-10-25 06:57:27 51°13.629 2°56.021 3.4 336 10.7 99860 57
2011-10-25 06:57:31 51°13.629 2°56.021 3.6 341 10.6 99860 57
2011-10-25 06:57:37 51°13.629 2°56.021 3.6 344 10.6 99860 57
2011-10-25 06:57:42 51°13.629 2°56.021 3.9 344 10.6 99860 57
2011-10-25 06:57:47 51°13.63 2°56.021 3.2 341 10.6 99860 57
2011-10-25 06:57:52 51°13.631 2°56.021 3.3 342 10.6 99860 58
2011-10-25 06:57:58 51°13.631 2°56.021 3 342 10.6 99860 58
2011-10-25 06:58:03 51°13.631 2°56.021 3.6 344 10.6 99860 58
2011-10-25 06:58:08 51°13.631 2°56.022 3.8 339 10.6 99860 58
2011-10-25 06:58:13 51°13.631 2°56.022 3.5 351 10.6 99860 57
2011-10-25 06:58:19 51°13.63 2°56.023 2.8 339 10.6 99860 57
2011-10-25 06:58:24 51°13.63 2°56.023 2.7 338 10.6 99860 57
2011-10-25 06:58:28 51°13.63 2°56.023 3.2 345 10.6 99860 57
2011-10-25 06:58:33 51°13.63 2°56.023 4.8 343 10.6 99860 58
2011-10-25 06:58:38 51°13.63 2°56.023 3.1 339 10.6 99860 58
2011-10-25 06:58:43 51°13.63 2°56.023 3.1 341 10.6 99860 58
2011-10-25 06:58:48 51°13.631 2°56.023 2.2 338 10.6 99860 58
2011-10-25 06:58:53 51°13.631 2°56.023 2.7 350 10.6 99860 57
2011-10-25 06:58:58 51°13.631 2°56.023 2.7 340 10.6 99860 57
2011-10-25 06:59:04 51°13.632 2°56.023 2.4 338 10.6 99860 57
2011-10-25 06:59:08 51°13.632 2°56.023 3.2 344 10.6 99860 57
2011-10-25 06:59:14 51°13.632 2°56.023 4.5 338 10.6 99860 58
2011-10-25 06:59:19 51°13.632 2°56.023 3.6 349 10.6 99860 58
2011-10-25 06:59:24 51°13.632 2°56.023 3.9 345 10.6 99860 57
2011-10-25 06:59:29 51°13.632 2°56.023 3.7 340 10.6 99860 57
2011-10-25 06:59:34 51°13.632 2°56.023 3.2 343 10.6 99860 57
2011-10-25 06:59:40 51°13.632 2°56.022 3.6 345 10.6 99860 57
2011-10-25 06:59:45 51°13.632 2°56.022 3.2 343 10.7 99860 58
2011-10-25 06:59:49 51°13.632 2°56.023 2.8 340 10.7 99860 58
2011-10-25 06:59:54 51°13.631 2°56.022 2.4 337 10.6 99860 58
2011-10-25 07:00:00 51°13.631 2°56.022 3.1 330 10.6 99860 58
2011-10-25 07:00:05 51°13.631 2°56.022 2.7 333 10.7 99860 58
2011-10-25 07:00:09 51°13.631 2°56.022 4.7 340 10.7 99860 58
2011-10-25 07:00:15 51°13.631 2°56.022 4.3 343 10.6 99860 57
2011-10-25 07:00:19 51°13.631 2°56.022 3.8 346 10.6 99860 57
2011-10-25 07:00:25 51°13.631 2°56.022 3.5 343 10.6 99860 57
2011-10-25 07:00:29 51°13.631 2°56.022 4.4 341 10.6 99860 57
2011-10-25 07:00:34 51°13.631 2°56.022 4.5 339 10.6 99860 58
2011-10-25 07:00:39 51°13.631 2°56.022 5 338 10.6 99860 58
2011-10-25 07:00:44 51°13.631 2°56.022 4.2 343 10.6 99860 57
2011-10-25 07:00:49 51°13.631 2°56.022 4.4 338 10.6 99860 57
2011-10-25 07:00:54 51°13.631 2°56.022 3.8 340 10.7 99860 57
2011-10-25 07:00:59 51°13.631 2°56.022 4.3 341 10.7 99860 57
2011-10-25 07:01:04 51°13.632 2°56.022 4.5 339 10.7 99860 57
2011-10-25 07:01:09 51°13.632 2°56.022 3.6 343 10.7 99860 57
2011-10-25 07:01:14 51°13.632 2°56.022 4.2 343 10.6 99860 57
2011-10-25 07:01:18 51°13.632 2°56.022 4.2 344 10.6 99860 57
2011-10-25 07:01:23 51°13.632 2°56.022 3.7 341 10.6 99860 57
2011-10-25 07:01:29 51°13.632 2°56.022 2.3 344 10.6 99860 57
2011-10-25 07:01:33 51°13.632 2°56.021 2.9 348 10.6 99860 57
2011-10-25 07:01:39 51°13.634 2°56.021 4.1 340 10.6 99860 57
2011-10-25 07:01:44 51°13.635 2°56.021 4.4 337 10.6 99860 57
2011-10-25 07:01:49 51°13.636 2°56.021 3.8 343 10.6 99860 57
2011-10-25 07:01:54 51°13.636 2°56.02 3.4 345 10.6 99860 57
2011-10-25 07:01:59 51°13.637 2°56.019 3.9 342 10.6 99860 57
2011-10-25 07:02:05 51°13.637 2°56.019 3.9 343 10.7 99860 57
2011-10-25 07:02:10 51°13.637 2°56.018 2.9 342 10.7 99860 57
2011-10-25 07:02:14 51°13.637 2°56.017 3.1 341 10.6 99860 58
2011-10-25 07:02:19 51°13.637 2°56.017 3.1 340 10.6 99860 58
2011-10-25 07:02:25 51°13.637 2°56.016 3.5 343 10.6 99860 57
2011-10-25 07:02:30 51°13.638 2°56.014 3.3 340 10.6 99860 57
2011-10-25 07:02:34 51°13.638 2°56.014 4 338 10.6 99860 57
2011-10-25 07:02:39 51°13.638 2°56.014 3.8 344 10.6 99860 57
2011-10-25 07:02:44 51°13.638 2°56.015 4.3 346 10.6 99860 58
2011-10-25 07:02:49 51°13.638 2°56.017 2.8 343 10.6 99860 58
2011-10-25 07:02:55 51°13.638 2°56.018 3.8 344 10.7 99860 57
2011-10-25 07:02:59 51°13.637 2°56.018 2.1 342 10.7 99860 57
2011-10-25 07:03:04 51°13.637 2°56.018 2.4 341 10.6 99870 57
2011-10-25 07:03:10 51°13.636 2°56.017 1.9 345 10.6 99870 57
2011-10-25 07:03:15 51°13.636 2°56.016 2.1 344 10.6 99860 58
2011-10-25 07:03:19 51°13.636 2°56.017 2.7 337 10.6 99860 58
2011-10-25 07:03:24 51°13.636 2°56.017 2.9 335 10.6 99870 57
2011-10-25 07:03:29 51°13.637 2°56.017 2.6 349 10.6 99870 57
2011-10-25 07:03:34 51°13.637 2°56.018 2.4 343 10.6 99860 55
2011-10-25 07:03:40 51°13.637 2°56.018 2.1 339 10.6 99860 55
2011-10-25 07:03:44 51°13.637 2°56.018 1.3 339 10.6 99860 57
2011-10-25 07:03:49 51°13.637 2°56.018 0.8 340 10.6 99860 57
2011-10-25 07:03:54 51°13.637 2°56.018 1.2 336 10.6 99860 57
2011-10-25 07:03:59 51°13.637 2°56.018 2.6 348 10.6 99860 57
2011-10-25 07:04:04 51°13.637 2°56.018 2.9 341 10.6 99860 57
2011-10-25 07:04:08 51°13.637 2°56.018 2.4 343 10.6 99860 57
2011-10-25 07:04:13 51°13.637 2°56.018 2.7 344 10.7 99870 57
2011-10-25 07:04:18 51°13.637 2°56.018 2.3 351 10.7 99870 57
2011-10-25 07:04:23 51°13.637 2°56.018 2.3 348 10.7 99860 58
2011-10-25 07:04:28 51°13.638 2°56.018 3.5 344 10.7 99860 58
2011-10-25 07:04:34 51°13.637 2°56.018 4.3 342 10.6 99870 57
2011-10-25 07:04:37 51°13.638 2°56.018 3.3 346 10.6 99870 57
2011-10-25 07:04:44 51°13.638 2°56.018 3.9 338 10.7 99870 57
2011-10-25 07:04:49 51°13.638 2°56.018 2.6 338 10.7 99870 57
2011-10-25 07:04:53 51°13.638 2°56.018 2.5 332 10.7 99870 58
2011-10-25 07:04:58 51°13.638 2°56.018 2.7 338 10.7 99870 58
2011-10-25 07:05:03 51°13.637 2°56.018 2.6 337 10.6 99870 57
2011-10-25 07:05:08 51°13.637 2°56.018 1.9 329 10.6 99870 57
2011-10-25 07:05:13 51°13.637 2°56.018 1.9 340 10.7 99870 57
2011-10-25 07:05:17 51°13.637 2°56.018 3 348 10.7 99870 57
2011-10-25 07:05:22 51°13.637 2°56.018 3.2 345 10.7 99870 58
2011-10-25 07:05:27 51°13.637 2°56.018 4.2 346 10.7 99870 58
2011-10-25 07:05:32 51°13.637 2°56.018 4.1 346 10.7 99870 58
2011-10-25 07:05:37 51°13.636 2°56.018 4 354 10.7 99870 58
2011-10-25 07:05:41 51°13.636 2°56.018 4.1 353 10.7 99870 58
2011-10-25 07:05:46 51°13.636 2°56.018 3.5 350 10.7 99870 58
2011-10-25 07:05:51 51°13.636 2°56.018 3.1 353 10.7 99870 58
2011-10-25 07:05:56 51°13.636 2°56.018 3 348 10.7 99870 58
2011-10-25 07:06:01 51°13.636 2°56.018 3.5 345 10.7 99870 58
2011-10-25 07:06:06 51°13.636 2°56.018 2.9 344 10.7 99870 58
2011-10-25 07:06:12 51°13.636 2°56.018 3.1 346 10.7 99860 57
2011-10-25 07:06:17 51°13.636 2°56.018 2.8 347 10.7 99860 57
2011-10-25 07:06:22 51°13.636 2°56.018 2.6 351 10.7 99870 58
2011-10-25 07:06:26 51°13.635 2°56.018 2.3 351 10.7 99870 58
2011-10-25 07:06:31 51°13.635 2°56.018 2.9 348 10.6 99860 58
2011-10-25 07:06:36 51°13.636 2°56.017 2.5 350 10.6 99860 58
2011-10-25 07:06:41 51°13.636 2°56.016 2.7 356 10.7 99870 58
2011-10-25 07:06:46 51°13.636 2°56.014 1.9 349 10.7 99870 58
2011-10-25 07:06:51 51°13.637 2°56.012 1.9 349 10.7 99870 57
2011-10-25 07:06:56 51°13.637 2°56.01 0.9 2 10.7 99870 57
2011-10-25 07:07:01 51°13.638 2°56.008 0.9 354 10.7 99870 58
2011-10-25 07:07:07 51°13.639 2°56.004 2.6 356 10.7 99870 58
2011-10-25 07:07:12 51°13.639 2°56.001 2.4 359 10.7 99870 57
2011-10-25 07:07:18 51°13.64 2°55.997 3.3 -999 10.7 99870 57
2011-10-25 07:07:23 51°13.641 2°55.993 3.7 4 10.7 99870 58
2011-10-25 07:07:29 51°13.642 2°55.988 2.7 356 10.7 99870 58
2011-10-25 07:07:34 51°13.643 2°55.984 2.6 355 10.7 99870 57
2011-10-25 07:07:39 51°13.644 2°55.98 2.9 355 10.7 99870 57
2011-10-25 07:07:44 51°13.644 2°55.976 2.9 354 10.7 99870 57
2011-10-25 07:07:50 51°13.645 2°55.97 2.4 349 10.7 99870 57
2011-10-25 07:07:55 51°13.646 2°55.965 2.8 347 10.7 99870 57
2011-10-25 07:08:00 51°13.647 2°55.96 2.5 353 10.7 99870 57
2011-10-25 07:08:04 51°13.647 2°55.955 2.4 349 10.6 99870 57
2011-10-25 07:08:09 51°13.648 2°55.95 2.1 357 10.6 99870 57
2011-10-25 07:08:14 51°13.648 2°55.945 2.2 1 10.7 99870 58
2011-10-25 07:08:20 51°13.649 2°55.939 2.1 357 10.7 99870 58
2011-10-25 07:08:25 51°13.649 2°55.937 1.7 355 10.6 99870 57
2011-10-25 07:08:29 51°13.649 2°55.936 1.8 358 10.6 99870 57
2011-10-25 07:08:34 51°13.649 2°55.935 1.9 353 10.7 99870 58
2011-10-25 07:08:40 51°13.649 2°55.936 3.2 343 10.7 99870 58
2011-10-25 07:08:45 51°13.649 2°55.937 3.2 346 10.6 99870 58
2011-10-25 07:08:49 51°13.649 2°55.937 3.1 339 10.6 99870 58
2011-10-25 07:08:54 51°13.649 2°55.936 3.8 338 10.7 99870 55
2011-10-25 07:09:00 51°13.65 2°55.935 3.6 336 10.7 99870 55
2011-10-25 07:09:05 51°13.65 2°55.933 3.6 332 10.6 99860 57
2011-10-25 07:09:09 51°13.651 2°55.931 2 340 10.6 99860 57
2011-10-25 07:09:14 51°13.652 2°55.929 2.3 344 10.6 99870 58
2011-10-25 07:09:19 51°13.654 2°55.925 1.3 341 10.6 99870 58
2011-10-25 07:09:25 51°13.656 2°55.922 1.1 355 10.6 99870 58
2011-10-25 07:09:29 51°13.657 2°55.918 0.8 351 10.6 99870 58
2011-10-25 07:09:34 51°13.659 2°55.915 0.9 350 10.7 99870 57
2011-10-25 07:09:40 51°13.661 2°55.91 1.6 337 10.7 99870 57
2011-10-25 07:09:45 51°13.663 2°55.905 1.4 340 10.7 99870 57
2011-10-25 07:09:50 51°13.665 2°55.9 0.9 346 10.7 99870 57
2011-10-25 07:09:54 51°13.667 2°55.896 1 343 10.7 99870 58
2011-10-25 07:10:00 51°13.67 2°55.89 1.6 346 10.7 99870 58
2011-10-25 07:10:04 51°13.672 2°55.886 1.9 345 10.7 99870 57
2011-10-25 07:10:10 51°13.675 2°55.879 0.2 347 10.7 99870 57
2011-10-25 07:10:14 51°13.677 2°55.875 0.1 349 10.7 99870 57
2011-10-25 07:10:19 51°13.68 2°55.869 0.1 347 10.7 99870 57
2011-10-25 07:10:24 51°13.683 2°55.863 -999 343 10.7 99870 57
2011-10-25 07:10:29 51°13.686 2°55.857 -999 336 10.7 99870 57
2011-10-25 07:10:34 51°13.689 2°55.851 0.8 335 10.7 99870 58
2011-10-25 07:10:39 51°13.692 2°55.845 0.3 342 10.7 99870 58
2011-10-25 07:10:44 51°13.695 2°55.839 0.9 332 10.7 99870 58
2011-10-25 07:10:50 51°13.698 2°55.832 0.7 346 10.7 99870 58
2011-10-25 07:10:55 51°13.701 2°55.826 0.6 346 10.7 99870 57
2011-10-25 07:10:59 51°13.704 2°55.822 0.8 3 10.7 99870 57
2011-10-25 07:11:05 51°13.708 2°55.815 0.4 355 10.7 99870 57
2011-10-25 07:11:10 51°13.711 2°55.809 1.1 2 10.7 99870 57
2011-10-25 07:11:15 51°13.715 2°55.803 1.4 356 10.7 99870 57
2011-10-25 07:11:20 51°13.718 2°55.797 1.1 352 10.7 99870 57
2011-10-25 07:11:25 51°13.721 2°55.791 0.8 352 10.7 99870 57
2011-10-25 07:11:30 51°13.725 2°55.785 0.1 351 10.7 99870 57
2011-10-25 07:11:35 51°13.728 2°55.778 0.1 349 10.7 99870 55
2011-10-25 07:11:39 51°13.731 2°55.774 0.7 344 10.7 99870 55
2011-10-25 07:11:45 51°13.735 2°55.766 0.4 344 10.7 99870 58
2011-10-25 07:11:50 51°13.739 2°55.76 0.1 345 10.7 99870 58
2011-10-25 07:11:55 51°13.742 2°55.754 0.1 348 10.7 99870 59
2011-10-25 07:11:59 51°13.745 2°55.75 0.1 354 10.7 99870 59
2011-10-25 07:12:04 51°13.748 2°55.744 0.1 344 10.7 99870 58
2011-10-25 07:12:10 51°13.752 2°55.737 -999 341 10.7 99870 58
2011-10-25 07:12:15 51°13.756 2°55.731 -999 344 10.7 99870 58
2011-10-25 07:12:19 51°13.758 2°55.726 1 348 10.7 99870 58
2011-10-25 07:12:24 51°13.762 2°55.72 1.2 349 10.7 99870 58
2011-10-25 07:12:29 51°13.765 2°55.714 1.2 346 10.7 99870 58
2011-10-25 07:12:34 51°13.768 2°55.708 1.6 343 10.7 99870 58
2011-10-25 07:12:39 51°13.772 2°55.702 1.9 344 10.7 99870 58
2011-10-25 07:12:44 51°13.775 2°55.696 0.8 348 10.7 99870 59
2011-10-25 07:12:49 51°13.779 2°55.691 1.1 347 10.7 99870 59
2011-10-25 07:12:55 51°13.783 2°55.684 1.4 339 10.7 99870 59
2011-10-25 07:12:59 51°13.786 2°55.68 1.2 337 10.7 99870 59
2011-10-25 07:13:04 51°13.789 2°55.675 1 338 10.7 99870 57
2011-10-25 07:13:10 51°13.794 2°55.669 1 323 10.7 99870 57
2011-10-25 07:13:15 51°13.798 2°55.664 1.3 325 10.7 99870 57
2011-10-25 07:13:20 51°13.802 2°55.659 0.9 327 10.7 99870 57
2011-10-25 07:13:24 51°13.805 2°55.656 0.5 336 10.7 99870 59
2011-10-25 07:13:29 51°13.809 2°55.652 0.1 329 10.7 99870 59
2011-10-25 07:13:34 51°13.813 2°55.648 0.1 329 10.7 99870 58
2011-10-25 07:13:39 51°13.818 2°55.644 -999 323 10.7 99870 58
2011-10-25 07:13:44 51°13.822 2°55.641 -999 325 10.7 99870 58
2011-10-25 07:13:49 51°13.827 2°55.637 -999 322 10.7 99870 58
2011-10-25 07:13:54 51°13.832 2°55.634 -999 322 10.7 99870 58
2011-10-25 07:13:59 51°13.836 2°55.631 -999 35 10.7 99870 58
2011-10-25 07:14:04 51°13.841 2°55.629 -999 23 10.7 99870 58
2011-10-25 07:14:09 51°13.846 2°55.626 0.7 237 10.7 99870 58
2011-10-25 07:14:14 51°13.851 2°55.624 0.4 25 10.7 99870 56
2011-10-25 07:14:19 51°13.856 2°55.622 1.3 243 10.7 99870 56
2011-10-25 07:14:24 51°13.861 2°55.621 2 26 10.7 99870 58
2011-10-25 07:14:29 51°13.866 2°55.62 1.8 240 10.7 99870 58
2011-10-25 07:14:34 51°13.87 2°55.619 2.2 28 10.7 99870 58
2011-10-25 07:14:39 51°13.875 2°55.618 1.5 245 10.7 99870 58
2011-10-25 07:14:44 51°13.88 2°55.618 2.1 20 10.7 99870 58
2011-10-25 07:14:48 51°13.884 2°55.618 1.6 246 10.7 99870 58
2011-10-25 07:14:55 51°13.891 2°55.618 1.6 249 10.7 99870 59
2011-10-25 07:15:00 51°13.895 2°55.619 2.1 254 10.7 99870 59
2011-10-25 07:15:05 51°13.9 2°55.621 2.1 255 10.7 99870 57
2011-10-25 07:15:09 51°13.903 2°55.623 3.3 257 10.7 99870 57
2011-10-25 07:15:14 51°13.908 2°55.625 3.3 257 10.7 99870 57
2011-10-25 07:15:20 51°13.913 2°55.628 2.7 258 10.7 99870 57
2011-10-25 07:15:25 51°13.917 2°55.631 2.5 256 10.7 99870 58
2011-10-25 07:15:29 51°13.921 2°55.633 2.8 40 10.7 99870 58
2011-10-25 07:15:34 51°13.925 2°55.636 2.7 270 10.7 99870 57
2011-10-25 07:15:39 51°13.929 2°55.64 2.3 35 10.7 99870 57
2011-10-25 07:15:45 51°13.933 2°55.645 2.8 18 10.7 99870 57
2011-10-25 07:15:49 51°13.936 2°55.648 2.3 268 10.7 99870 57
2011-10-25 07:15:54 51°13.94 2°55.653 2.6 266 10.7 99870 59
2011-10-25 07:15:59 51°13.943 2°55.657 3.5 33 10.7 99870 59
2011-10-25 07:16:05 51°13.947 2°55.664 3.7 23 10.7 99870 58
2011-10-25 07:16:09 51°13.949 2°55.667 3 268 10.7 99870 58
2011-10-25 07:16:15 51°13.952 2°55.673 3.7 270 10.7 99870 57
2011-10-25 07:16:19 51°13.954 2°55.677 5.1 350 10.7 99870 57
2011-10-25 07:16:24 51°13.956 2°55.681 3.8 28 10.7 99870 58
2011-10-25 07:16:29 51°13.958 2°55.685 3.2 267 10.7 99870 58
2011-10-25 07:16:34 51°13.959 2°55.688 3 269 10.7 99870 57
2011-10-25 07:16:39 51°13.96 2°55.69 3.4 267 10.7 99870 57
2011-10-25 07:16:44 51°13.961 2°55.691 2.5 267 10.7 99870 58
2011-10-25 07:16:49 51°13.961 2°55.691 3.1 36 10.7 99870 58
2011-10-25 07:16:54 51°13.962 2°55.69 4 267 10.7 99870 58
2011-10-25 07:16:59 51°13.962 2°55.688 3.1 37 10.7 99870 58
2011-10-25 07:17:03 51°13.963 2°55.686 2.9 23 10.7 99870 57
2011-10-25 07:17:08 51°13.964 2°55.682 3.3 31 10.7 99870 57
2011-10-25 07:17:13 51°13.965 2°55.678 3.3 21 10.7 99870 58
2011-10-25 07:17:18 51°13.966 2°55.674 2.7 39 10.7 99870 58
2011-10-25 07:17:23 51°13.967 2°55.669 2.8 23 10.7 99870 58
2011-10-25 07:17:28 51°13.969 2°55.664 2.2 37 10.7 99870 58
2011-10-25 07:17:34 51°13.971 2°55.656 2.1 25 10.7 99870 58
2011-10-25 07:17:38 51°13.974 2°55.65 2.5 33 10.7 99870 58
2011-10-25 07:17:43 51°13.977 2°55.641 2.3 28 10.7 99870 57
2011-10-25 07:17:48 51°13.98 2°55.632 0.8 38 10.7 99870 57
2011-10-25 07:17:53 51°13.984 2°55.622 1.1 25 10.7 99870 58
2011-10-25 07:17:58 51°13.989 2°55.611 0.4 267 10.7 99870 58
2011-10-25 07:18:02 51°13.993 2°55.603 0.2 267 10.7 99870 59
2011-10-25 07:18:07 51°13.999 2°55.592 0.1 270 10.7 99870 59
2011-10-25 07:18:12 51°14.005 2°55.581 -999 270 10.7 99870 59
2011-10-25 07:18:17 51°14.012 2°55.571 -999 270 10.7 99870 59
2011-10-25 07:18:22 51°14.019 2°55.56 -999 270 10.7 99870 58
2011-10-25 07:18:27 51°14.026 2°55.55 -999 37 10.7 99870 58
2011-10-25 07:18:31 51°14.032 2°55.541 -999 24 10.7 99870 58
2011-10-25 07:18:38 51°14.043 2°55.527 -999 35 10.7 99870 58
2011-10-25 07:18:41 51°14.048 2°55.521 -999 24 10.7 99870 58
2011-10-25 07:18:46 51°14.057 2°55.512 -999 35 10.7 99870 58
2011-10-25 07:18:52 51°14.067 2°55.5 -999 23 10.7 99870 58
2011-10-25 07:18:57 51°14.076 2°55.49 -999 22 10.7 99870 58
2011-10-25 07:19:02 51°14.085 2°55.481 -999 29 10.7 99870 58
2011-10-25 07:19:07 51°14.094 2°55.471 0.3 23 10.7 99870 58
2011-10-25 07:19:12 51°14.103 2°55.461 0.2 24 10.7 99860 58
2011-10-25 07:19:18 51°14.114 2°55.449 0.1 16 10.7 99860 58
2011-10-25 07:19:23 51°14.124 2°55.439 -999 14 10.7 99860 58
2011-10-25 07:19:28 51°14.133 2°55.43 -999 22 10.7 99860 58
2011-10-25 07:19:32 51°14.14 2°55.422 -999 23 10.7 99870 56
2011-10-25 07:19:38 51°14.152 2°55.41 -999 23 10.7 99870 56
2011-10-25 07:19:44 51°14.163 2°55.398 -999 20 10.6 99860 58
2011-10-25 07:19:48 51°14.171 2°55.391 -999 28 10.6 99860 58
2011-10-25 07:19:53 51°14.181 2°55.381 -999 22 10.7 99870 58
2011-10-25 07:19:59 51°14.192 2°55.369 -999 15 10.7 99870 58
2011-10-25 07:20:04 51°14.202 2°55.361 -999 15 10.7 99860 58
2011-10-25 07:20:09 51°14.212 2°55.352 -999 359 10.7 99860 58
2011-10-25 07:20:15 51°14.224 2°55.341 -999 342 10.7 99870 58
2011-10-25 07:20:20 51°14.233 2°55.332 -999 4 10.7 99870 58
2011-10-25 07:20:25 51°14.243 2°55.324 -999 5 10.7 99860 58
2011-10-25 07:20:29 51°14.251 2°55.317 -999 6 10.7 99860 58
2011-10-25 07:20:34 51°14.261 2°55.308 -999 15 10.7 99860 58
2011-10-25 07:20:39 51°14.27 2°55.299 0.1 26 10.7 99860 58
2011-10-25 07:20:44 51°14.28 2°55.29 0.1 25 10.7 99870 58
2011-10-25 07:20:49 51°14.291 2°55.281 0.1 14 10.7 99870 58
2011-10-25 07:20:54 51°14.301 2°55.271 0.1 21 10.7 99860 58
2011-10-25 07:21:00 51°14.314 2°55.259 -999 26 10.7 99860 58
2011-10-25 07:21:05 51°14.325 2°55.249 -999 26 10.7 99870 58
2011-10-25 07:21:10 51°14.336 2°55.239 -999 20 10.7 99870 58
2011-10-25 07:21:14 51°14.345 2°55.23 -999 30 10.7 99860 58
2011-10-25 07:21:19 51°14.356 2°55.219 -999 18 10.7 99860 58
2011-10-25 07:21:24 51°14.367 2°55.208 -999 18 10.7 99870 58
2011-10-25 07:21:29 51°14.378 2°55.197 -999 6 10.7 99870 58
2011-10-25 07:21:35 51°14.392 2°55.184 -999 6 10.7 99860 58
2011-10-25 07:21:39 51°14.401 2°55.175 -999 21 10.7 99860 58
2011-10-25 07:21:44 51°14.412 2°55.164 -999 23 10.7 99860 58
2011-10-25 07:21:49 51°14.423 2°55.153 -999 35 10.7 99860 58
2011-10-25 07:21:54 51°14.435 2°55.142 -999 35 10.7 99870 58
2011-10-25 07:21:59 51°14.446 2°55.131 -999 31 10.7 99870 58
2011-10-25 07:22:04 51°14.457 2°55.119 -999 31 10.7 99860 58
2011-10-25 07:22:09 51°14.469 2°55.108 -999 3 10.7 99860 58
2011-10-25 07:22:13 51°14.478 2°55.099 -999 1 10.7 99860 56
2011-10-25 07:22:19 51°14.492 2°55.085 -999 5 10.7 99860 56
2011-10-25 07:22:23 51°14.501 2°55.076 -999 5 10.7 99860 58
2011-10-25 07:22:28 51°14.512 2°55.064 0.1 5 10.7 99860 58
2011-10-25 07:22:34 51°14.526 2°55.048 0.1 5 10.7 99860 58
2011-10-25 07:22:38 51°14.535 2°55.037 -999 3 10.7 99860 58
2011-10-25 07:22:44 51°14.548 2°55.02 -999 3 10.7 99860 58
2011-10-25 07:22:48 51°14.557 2°55.008 -999 2 10.7 99860 58
2011-10-25 07:22:53 51°14.568 2°54.991 -999 2 10.7 99860 58
2011-10-25 07:22:58 51°14.577 2°54.973 -999 358 10.7 99860 58
2011-10-25 07:23:03 51°14.586 2°54.954 -999 338 10.7 99860 58
2011-10-25 07:23:08 51°14.595 2°54.935 -999 319 10.7 99860 58
2011-10-25 07:23:12 51°14.601 2°54.919 -999 23 10.7 99870 58
2011-10-25 07:23:17 51°14.609 2°54.898 -999 246 10.7 99870 58
2011-10-25 07:23:22 51°14.616 2°54.876 0.1 18 10.7 99860 58
2011-10-25 07:23:27 51°14.622 2°54.854 2.7 248 10.7 99860 58
2011-10-25 07:23:32 51°14.628 2°54.831 2.4 20 10.7 99860 58
2011-10-25 07:23:37 51°14.632 2°54.808 2.8 252 10.7 99860 58
2011-10-25 07:23:41 51°14.634 2°54.789 3.3 20 10.7 99860 59
2011-10-25 07:23:46 51°14.636 2°54.765 4.1 246 10.7 99860 59
2011-10-25 07:23:52 51°14.637 2°54.736 4 23 10.7 99860 58
2011-10-25 07:23:56 51°14.636 2°54.717 4.6 238 10.7 99860 58
2011-10-25 07:24:01 51°14.634 2°54.693 4.5 22 10.7 99860 58
2011-10-25 07:24:06 51°14.631 2°54.669 5.8 242 10.7 99860 58
2011-10-25 07:24:11 51°14.627 2°54.647 6.7 24 10.7 99860 58
2011-10-25 07:24:16 51°14.622 2°54.624 6.6 33 10.7 99860 58
2011-10-25 07:24:20 51°14.617 2°54.606 6.8 20 10.7 99860 57
2011-10-25 07:24:25 51°14.61 2°54.585 7.1 32 10.7 99860 57
2011-10-25 07:24:30 51°14.603 2°54.563 8.5 24 10.8 99850 58
2011-10-25 07:24:36 51°14.594 2°54.537 6.5 32 10.8 99850 58
2011-10-25 07:24:40 51°14.588 2°54.52 6.6 25 10.8 99850 58
2011-10-25 07:24:46 51°14.578 2°54.494 9.3 31 10.8 99850 58
2011-10-25 07:24:51 51°14.57 2°54.473 7.2 21 10.8 99850 56
2011-10-25 07:24:56 51°14.562 2°54.451 6.1 232 10.8 99850 56
2011-10-25 07:25:01 51°14.554 2°54.429 6.9 28 10.8 99850 58
2011-10-25 07:25:06 51°14.547 2°54.407 7.8 237 10.8 99850 58
2011-10-25 07:25:11 51°14.539 2°54.385 7.8 21 10.8 99850 58
2011-10-25 07:25:16 51°14.531 2°54.362 6.7 33 10.8 99850 58
2011-10-25 07:25:22 51°14.521 2°54.335 7.2 25 10.7 99850 58
2011-10-25 07:25:25 51°14.516 2°54.321 6.7 33 10.7 99850 58
2011-10-25 07:25:31 51°14.506 2°54.294 7.7 20 10.7 99850 58
2011-10-25 07:25:35 51°14.499 2°54.276 7 234 10.7 99850 58
2011-10-25 07:25:41 51°14.488 2°54.247 7.1 23 10.8 99850 57
2011-10-25 07:25:46 51°14.479 2°54.224 8.5 31 10.8 99850 57
2011-10-25 07:25:51 51°14.47 2°54.2 7 24 10.8 99850 58
2011-10-25 07:25:56 51°14.462 2°54.176 7.3 34 10.8 99850 58
2011-10-25 07:26:01 51°14.454 2°54.151 7.3 23 10.7 99850 58
2011-10-25 07:26:06 51°14.445 2°54.127 7.6 234 10.7 99850 58
2011-10-25 07:26:11 51°14.437 2°54.102 8 22 10.8 99850 57
2011-10-25 07:26:16 51°14.429 2°54.077 8 34 10.8 99850 57
2011-10-25 07:26:21 51°14.421 2°54.052 9.1 25 10.8 99850 57
2011-10-25 07:26:26 51°14.413 2°54.028 7.4 38 10.8 99850 57
2011-10-25 07:26:30 51°14.406 2°54.008 6.9 27 10.8 99850 57
2011-10-25 07:26:36 51°14.395 2°53.979 6.9 33 10.8 99850 57
2011-10-25 07:26:40 51°14.388 2°53.96 7.5 26 10.7 99840 57
2011-10-25 07:26:46 51°14.377 2°53.931 9.4 34 10.7 99840 57
2011-10-25 07:26:50 51°14.37 2°53.912 7.6 25 10.8 99840 58
2011-10-25 07:26:55 51°14.36 2°53.888 8 38 10.8 99840 58
2011-10-25 07:27:00 51°14.351 2°53.864 7.8 23 10.8 99850 57
2011-10-25 07:27:06 51°14.34 2°53.835 3.2 31 10.8 99850 57
2011-10-25 07:27:11 51°14.33 2°53.812 6.7 26 10.8 99840 57
2011-10-25 07:27:16 51°14.321 2°53.788 8.6 37 10.8 99840 57
2011-10-25 07:27:21 51°14.311 2°53.766 7.1 21 10.8 99840 58
2011-10-25 07:27:26 51°14.3 2°53.742 9.1 32 10.8 99840 58
2011-10-25 07:27:31 51°14.29 2°53.72 7.4 25 10.8 99850 57
2011-10-25 07:27:36 51°14.28 2°53.697 10.6 36 10.8 99850 57
2011-10-25 07:27:41 51°14.27 2°53.674 9.6 23 10.8 99850 57
2011-10-25 07:27:46 51°14.258 2°53.652 7 38 10.8 99850 57
2011-10-25 07:27:51 51°14.248 2°53.629 9.6 27 10.8 99840 57
2011-10-25 07:27:56 51°14.238 2°53.607 7.2 34 10.8 99840 57
2011-10-25 07:28:01 51°14.227 2°53.585 8.1 23 10.8 99850 57
2011-10-25 07:28:06 51°14.217 2°53.562 7.8 36 10.8 99850 57
2011-10-25 07:28:11 51°14.206 2°53.539 8.8 27 10.8 99850 58
2011-10-25 07:28:16 51°14.196 2°53.516 7.6 36 10.8 99850 58
2011-10-25 07:28:21 51°14.186 2°53.493 6.6 27 10.8 99850 58
2011-10-25 07:28:26 51°14.177 2°53.469 8.5 35 10.8 99850 58
2011-10-25 07:28:31 51°14.168 2°53.444 8 25 10.8 99840 57
2011-10-25 07:28:35 51°14.161 2°53.425 6.9 31 10.8 99840 57
2011-10-25 07:28:40 51°14.153 2°53.4 7.2 24 10.8 99850 57
2011-10-25 07:28:46 51°14.143 2°53.37 7.7 34 10.8 99850 57
2011-10-25 07:28:52 51°14.134 2°53.34 7.4 28 10.8 99850 58
2011-10-25 07:28:56 51°14.127 2°53.319 7.5 31 10.8 99850 58
2011-10-25 07:29:01 51°14.119 2°53.294 6.8 23 10.8 99850 58
2011-10-25 07:29:06 51°14.111 2°53.27 9.6 37 10.8 99850 58
2011-10-25 07:29:11 51°14.103 2°53.245 9.2 25 10.8 99850 57
2011-10-25 07:29:16 51°14.094 2°53.22 9.1 236 10.8 99850 57
2011-10-25 07:29:21 51°14.085 2°53.195 7.8 23 10.8 99850 58
2011-10-25 07:29:26 51°14.076 2°53.171 9.6 34 10.8 99850 58
2011-10-25 07:29:31 51°14.067 2°53.147 7.4 20 10.8 99850 57
2011-10-25 07:29:36 51°14.058 2°53.123 10 32 10.8 99850 57
2011-10-25 07:29:41 51°14.049 2°53.098 7.6 19 10.8 99850 58
2011-10-25 07:29:46 51°14.039 2°53.075 7.8 34 10.8 99850 58
2011-10-25 07:29:51 51°14.029 2°53.052 7.9 28 10.8 99850 57
2011-10-25 07:29:56 51°14.019 2°53.028 9 235 10.8 99850 57
2011-10-25 07:30:01 51°14.008 2°53.006 8.2 27 10.8 99850 57
2011-10-25 07:30:06 51°13.998 2°52.982 8.3 36 10.8 99850 57
2011-10-25 07:30:11 51°13.988 2°52.96 8 21 10.8 99850 57
2011-10-25 07:30:16 51°13.978 2°52.937 8.6 33 10.8 99850 57
2011-10-25 07:30:21 51°13.967 2°52.914 7.8 26 10.8 99840 58
2011-10-25 07:30:26 51°13.957 2°52.891 8.1 37 10.8 99840 58
2011-10-25 07:30:31 51°13.947 2°52.868 10.2 26 10.8 99850 57
2011-10-25 07:30:36 51°13.936 2°52.845 8.4 37 10.8 99850 57
2011-10-25 07:30:41 51°13.926 2°52.822 9.9 27 10.7 99850 58
2011-10-25 07:30:46 51°13.916 2°52.799 7.4 37 10.7 99850 58
2011-10-25 07:30:51 51°13.906 2°52.776 8.3 22 10.8 99850 57
2011-10-25 07:30:56 51°13.896 2°52.752 7.9 31 10.8 99850 57
2011-10-25 07:31:01 51°13.886 2°52.729 8.6 22 10.7 99840 58
2011-10-25 07:31:06 51°13.876 2°52.706 8.8 39 10.7 99840 58
2011-10-25 07:31:11 51°13.866 2°52.683 7.6 28 10.8 99840 57
2011-10-25 07:31:16 51°13.856 2°52.659 7.2 33 10.8 99840 57
2011-10-25 07:31:21 51°13.847 2°52.635 4.4 27 10.8 99850 58
2011-10-25 07:31:26 51°13.837 2°52.611 7.9 231 10.8 99850 58
2011-10-25 07:31:31 51°13.827 2°52.587 8.7 23 10.8 99850 58
2011-10-25 07:31:36 51°13.818 2°52.564 8.1 33 10.8 99850 58
2011-10-25 07:31:41 51°13.808 2°52.54 8 21 10.8 99850 57
2011-10-25 07:31:46 51°13.798 2°52.516 7.5 34 10.8 99850 57
2011-10-25 07:31:51 51°13.789 2°52.492 7.3 21 10.8 99840 58
2011-10-25 07:31:56 51°13.779 2°52.468 9 38 10.8 99840 58
2011-10-25 07:32:01 51°13.77 2°52.444 7.7 24 10.7 99840 58
2011-10-25 07:32:06 51°13.761 2°52.42 8 38 10.7 99840 58
2011-10-25 07:32:11 51°13.751 2°52.397 8 22 10.8 99840 57
2011-10-25 07:32:16 51°13.741 2°52.373 9.9 35 10.8 99840 57
2011-10-25 07:32:21 51°13.732 2°52.349 8.8 25 10.8 99850 58
2011-10-25 07:32:26 51°13.722 2°52.326 9.7 33 10.8 99850 58
2011-10-25 07:32:31 51°13.713 2°52.302 9.9 27 10.8 99850 58
2011-10-25 07:32:36 51°13.703 2°52.278 8.5 33 10.8 99850 58
2011-10-25 07:32:41 51°13.694 2°52.254 7.7 26 10.8 99850 58
2011-10-25 07:32:45 51°13.686 2°52.235 7.7 35 10.8 99850 58
2011-10-25 07:32:51 51°13.675 2°52.205 8.8 27 10.7 99840 56
2011-10-25 07:32:56 51°13.666 2°52.181 8.9 32 10.7 99840 56
2011-10-25 07:33:01 51°13.658 2°52.156 9 24 10.8 99850 58
2011-10-25 07:33:05 51°13.651 2°52.136 8.5 38 10.8 99850 58
2011-10-25 07:33:11 51°13.64 2°52.107 8.3 22 10.8 99850 57
2011-10-25 07:33:16 51°13.631 2°52.082 7.5 33 10.8 99850 57
2011-10-25 07:33:21 51°13.623 2°52.057 8.1 20 10.8 99850 58
2011-10-25 07:33:26 51°13.614 2°52.032 6.8 40 10.8 99850 58
2011-10-25 07:33:30 51°13.607 2°52.013 6.9 26 10.8 99850 57
2011-10-25 07:33:36 51°13.597 2°51.983 8.2 39 10.8 99850 57
2011-10-25 07:33:41 51°13.588 2°51.958 8.7 23 10.8 99850 58
2011-10-25 07:33:46 51°13.58 2°51.933 8.8 35 10.8 99850 58
2011-10-25 07:33:51 51°13.571 2°51.908 9.4 21 10.8 99850 57
2011-10-25 07:33:55 51°13.564 2°51.888 9 35 10.8 99850 57
2011-10-25 07:34:01 51°13.554 2°51.859 7.7 26 10.8 99850 58
2011-10-25 07:34:06 51°13.545 2°51.834 7.6 30 10.8 99850 58
2011-10-25 07:34:11 51°13.536 2°51.81 10.1 21 10.8 99850 58
2011-10-25 07:34:16 51°13.527 2°51.785 8.1 34 10.8 99850 58
2011-10-25 07:34:21 51°13.518 2°51.761 8 22 10.8 99850 58
2011-10-25 07:34:26 51°13.509 2°51.736 7.7 36 10.8 99850 58
2011-10-25 07:34:31 51°13.501 2°51.711 8.5 22 10.8 99850 58
2011-10-25 07:34:35 51°13.494 2°51.691 8.3 32 10.8 99850 58
2011-10-25 07:34:41 51°13.485 2°51.661 8.1 21 10.8 99850 58
2011-10-25 07:34:46 51°13.476 2°51.636 7.8 30 10.8 99850 58
2011-10-25 07:34:52 51°13.467 2°51.605 7.2 20 10.8 99850 57
2011-10-25 07:34:56 51°13.46 2°51.585 7.8 37 10.8 99850 57
2011-10-25 07:35:01 51°13.452 2°51.56 7.4 19 10.8 99850 58
2011-10-25 07:35:06 51°13.444 2°51.535 7.3 37 10.8 99850 58
2011-10-25 07:35:11 51°13.436 2°51.51 7.1 20 10.8 99860 58
2011-10-25 07:35:16 51°13.427 2°51.485 7.2 33 10.8 99860 58
2011-10-25 07:35:20 51°13.421 2°51.464 7.5 18 10.8 99850 58
2011-10-25 07:35:26 51°13.411 2°51.435 7.3 31 10.8 99850 58
2011-10-25 07:35:32 51°13.401 2°51.404 9.6 22 10.8 99850 57
2011-10-25 07:35:36 51°13.394 2°51.384 7.8 37 10.8 99850 57
2011-10-25 07:35:41 51°13.386 2°51.359 7 21 10.8 99850 58
2011-10-25 07:35:46 51°13.377 2°51.334 7.4 32 10.8 99850 58
2011-10-25 07:35:51 51°13.369 2°51.309 9.1 24 10.8 99850 58
2011-10-25 07:35:56 51°13.361 2°51.285 8.2 36 10.8 99850 58
2011-10-25 07:36:01 51°13.352 2°51.26 7.7 25 10.8 99850 58
2011-10-25 07:36:06 51°13.343 2°51.235 8.8 234 10.8 99850 58
2011-10-25 07:36:11 51°13.335 2°51.211 7.5 24 10.8 99850 57
2011-10-25 07:36:16 51°13.326 2°51.186 7.4 34 10.8 99850 57
2011-10-25 07:36:21 51°13.317 2°51.161 7.5 24 10.8 99850 58
2011-10-25 07:36:26 51°13.308 2°51.137 7.1 36 10.8 99850 58
2011-10-25 07:36:31 51°13.299 2°51.113 7.4 20 10.8 99850 57
2011-10-25 07:36:36 51°13.29 2°51.088 8.5 35 10.8 99850 57
2011-10-25 07:36:41 51°13.281 2°51.064 4.4 19 10.8 99850 57
2011-10-25 07:36:46 51°13.272 2°51.039 9.6 233 10.8 99850 57
2011-10-25 07:36:51 51°13.263 2°51.015 9.9 27 10.8 99850 57
2011-10-25 07:36:56 51°13.254 2°50.991 8.4 32 10.8 99850 57
2011-10-25 07:37:01 51°13.245 2°50.966 9.3 19 10.8 99850 58
2011-10-25 07:37:06 51°13.236 2°50.942 8.1 34 10.8 99850 58
2011-10-25 07:37:11 51°13.227 2°50.918 8.5 24 10.8 99850 58
2011-10-25 07:37:16 51°13.218 2°50.893 10.5 34 10.8 99850 58
2011-10-25 07:37:21 51°13.21 2°50.868 10.3 21 10.8 99850 58
2011-10-25 07:37:26 51°13.2 2°50.844 7.9 34 10.8 99850 58
2011-10-25 07:37:31 51°13.192 2°50.82 7.3 24 10.8 99850 57
2011-10-25 07:37:36 51°13.183 2°50.796 7.5 233 10.8 99850 57
2011-10-25 07:37:41 51°13.174 2°50.771 8.4 22 10.8 99850 57
2011-10-25 07:37:46 51°13.165 2°50.747 9.5 32 10.8 99850 57
2011-10-25 07:37:51 51°13.155 2°50.723 8.3 24 10.8 99850 58
2011-10-25 07:37:56 51°13.146 2°50.699 7.7 36 10.8 99850 58
2011-10-25 07:38:01 51°13.137 2°50.675 7 25 10.8 99850 58
2011-10-25 07:38:06 51°13.128 2°50.65 4.6 233 10.8 99850 58
2011-10-25 07:38:10 51°13.12 2°50.631 7.8 28 10.8 99850 56
2011-10-25 07:38:16 51°13.109 2°50.603 8.7 34 10.8 99850 56
2011-10-25 07:38:22 51°13.098 2°50.574 8.2 24 10.8 99850 58
2011-10-25 07:38:26 51°13.09 2°50.555 9 36 10.8 99850 58
2011-10-25 07:38:31 51°13.081 2°50.532 9 26 10.8 99850 58
2011-10-25 07:38:36 51°13.071 2°50.508 8.6 37 10.8 99850 58
2011-10-25 07:38:41 51°13.061 2°50.485 7.3 28 10.8 99850 58
2011-10-25 07:38:46 51°13.051 2°50.462 9.3 38 10.8 99850 58
2011-10-25 07:38:50 51°13.043 2°50.443 8.2 22 10.8 99840 58
2011-10-25 07:38:56 51°13.031 2°50.415 7.6 36 10.8 99840 58
2011-10-25 07:39:01 51°13.021 2°50.392 8.1 25 10.8 99850 57
2011-10-25 07:39:06 51°13.011 2°50.369 9.1 35 10.8 99850 57
2011-10-25 07:39:10 51°13.003 2°50.35 7.7 25 10.7 99850 57
2011-10-25 07:39:15 51°12.993 2°50.327 7.5 38 10.7 99850 57
2011-10-25 07:39:20 51°12.984 2°50.303 7.6 28 10.8 99850 58
2011-10-25 07:39:26 51°12.972 2°50.274 9.7 36 10.8 99850 58
2011-10-25 07:39:30 51°12.965 2°50.255 8.7 21 10.8 99850 58
2011-10-25 07:39:35 51°12.955 2°50.232 7.6 33 10.8 99850 58
2011-10-25 07:39:41 51°12.944 2°50.203 6.7 22 10.8 99850 58
2011-10-25 07:39:46 51°12.935 2°50.179 8.8 36 10.8 99850 58
2011-10-25 07:39:51 51°12.926 2°50.155 8.8 21 10.7 99850 57
2011-10-25 07:39:55 51°12.919 2°50.135 10.2 235 10.7 99850 57
2011-10-25 07:40:00 51°12.91 2°50.111 9.8 27 10.7 99850 58
2011-10-25 07:40:06 51°12.899 2°50.082 11.6 32 10.7 99850 58
2011-10-25 07:40:11 51°12.888 2°50.059 8.6 25 10.7 99850 58
2011-10-25 07:40:16 51°12.879 2°50.036 9.9 35 10.7 99850 58
2011-10-25 07:40:21 51°12.869 2°50.013 9.4 21 10.7 99850 58
2011-10-25 07:40:26 51°12.859 2°49.99 8.3 37 10.7 99850 58
2011-10-25 07:40:31 51°12.849 2°49.967 4.1 25 10.7 99840 58
2011-10-25 07:40:36 51°12.839 2°49.944 8.7 35 10.7 99840 58
2011-10-25 07:40:41 51°12.828 2°49.921 7.6 20 10.8 99850 58
2011-10-25 07:40:46 51°12.819 2°49.898 8.9 38 10.8 99850 58
2011-10-25 07:40:51 51°12.809 2°49.875 8.9 20 10.8 99850 57
2011-10-25 07:40:56 51°12.799 2°49.852 8.2 35 10.8 99850 57
2011-10-25 07:41:00 51°12.791 2°49.834 9.8 19 10.8 99850 58
2011-10-25 07:41:06 51°12.779 2°49.805 8.1 36 10.8 99850 58
2011-10-25 07:41:11 51°12.769 2°49.782 9.2 23 10.8 99850 57
2011-10-25 07:41:16 51°12.76 2°49.758 7.1 36 10.8 99850 57
2011-10-25 07:41:20 51°12.753 2°49.739 9 19 10.7 99850 57
2011-10-25 07:41:26 51°12.741 2°49.711 9.4 35 10.7 99850 57
2011-10-25 07:41:31 51°12.732 2°49.687 9 26 10.8 99850 57
2011-10-25 07:41:36 51°12.722 2°49.664 8.7 33 10.8 99850 57
2011-10-25 07:41:40 51°12.715 2°49.644 8.6 20 10.8 99850 58
2011-10-25 07:41:46 51°12.703 2°49.616 8.3 37 10.8 99850 58
2011-10-25 07:41:51 51°12.694 2°49.592 7.3 25 10.7 99850 58
2011-10-25 07:41:56 51°12.685 2°49.569 7.4 38 10.7 99850 58
2011-10-25 07:42:00 51°12.677 2°49.55 7.3 23 10.8 99850 58
2011-10-25 07:42:06 51°12.666 2°49.521 10.2 33 10.8 99850 58
2011-10-25 07:42:11 51°12.657 2°49.497 8.6 22 10.8 99850 58
2011-10-25 07:42:16 51°12.648 2°49.473 7.5 37 10.8 99850 58
2011-10-25 07:42:20 51°12.641 2°49.454 7.8 24 10.8 99850 57
2011-10-25 07:42:25 51°12.631 2°49.431 7.7 38 10.8 99850 57
2011-10-25 07:42:30 51°12.622 2°49.407 8.8 23 10.8 99850 58
2011-10-25 07:42:36 51°12.611 2°49.378 8.5 38 10.8 99850 58
2011-10-25 07:42:40 51°12.603 2°49.359 11.2 22 10.8 99850 58
2011-10-25 07:42:46 51°12.593 2°49.331 10.1 233 10.8 99850 58
2011-10-25 07:42:51 51°12.583 2°49.307 8.9 27 10.8 99850 58
2011-10-25 07:42:56 51°12.575 2°49.283 9 37 10.8 99850 58
2011-10-25 07:43:00 51°12.568 2°49.263 9.8 21 10.8 99850 57
2011-10-25 07:43:06 51°12.558 2°49.234 8 36 10.8 99850 57
2011-10-25 07:43:11 51°12.549 2°49.209 7.6 25 10.8 99850 57
2011-10-25 07:43:16 51°12.542 2°49.184 8.5 34 10.8 99850 57
2011-10-25 07:43:20 51°12.536 2°49.163 9.4 27 10.8 99860 58
2011-10-25 07:43:26 51°12.527 2°49.132 7.3 39 10.8 99860 58
2011-10-25 07:43:31 51°12.52 2°49.107 7.1 20 10.8 99850 56
2011-10-25 07:43:36 51°12.513 2°49.081 8.5 36 10.8 99850 56
2011-10-25 07:43:40 51°12.507 2°49.06 7.8 24 10.8 99860 58
2011-10-25 07:43:46 51°12.498 2°49.03 8.7 234 10.8 99860 58
2011-10-25 07:43:51 51°12.49 2°49.005 7.3 21 10.8 99850 58
2011-10-25 07:43:56 51°12.482 2°48.98 8 235 10.8 99850 58
2011-10-25 07:44:00 51°12.476 2°48.96 7.8 26 10.8 99850 58
2011-10-25 07:44:06 51°12.466 2°48.93 8.2 31 10.8 99850 58
2011-10-25 07:44:11 51°12.459 2°48.904 4 22 10.8 99860 58
2011-10-25 07:44:16 51°12.451 2°48.879 7.9 37 10.8 99860 58
2011-10-25 07:44:20 51°12.444 2°48.86 7.5 27 10.8 99850 58
2011-10-25 07:44:26 51°12.435 2°48.83 8.2 36 10.8 99850 58
2011-10-25 07:44:31 51°12.427 2°48.805 10.4 21 10.8 99850 58
2011-10-25 07:44:36 51°12.418 2°48.78 9 31 10.8 99850 58
2011-10-25 07:44:40 51°12.412 2°48.76 7.3 21 10.8 99850 57
2011-10-25 07:44:46 51°12.402 2°48.73 9.7 34 10.8 99850 57
2011-10-25 07:44:51 51°12.394 2°48.706 9.2 21 10.8 99860 58
2011-10-25 07:44:56 51°12.385 2°48.681 7.2 33 10.8 99860 58
2011-10-25 07:45:00 51°12.379 2°48.661 9.2 22 10.8 99850 58
2011-10-25 07:45:06 51°12.369 2°48.631 8.2 38 10.8 99850 58
2011-10-25 07:45:11 51°12.36 2°48.607 9.3 26 10.8 99850 57
2011-10-25 07:45:16 51°12.352 2°48.582 8.6 32 10.8 99850 57
2011-10-25 07:45:21 51°12.344 2°48.557 7.5 21 10.8 99850 58
2011-10-25 07:45:26 51°12.335 2°48.533 7.7 35 10.8 99850 58
2011-10-25 07:45:31 51°12.327 2°48.508 8.9 25 10.8 99850 58
2011-10-25 07:45:36 51°12.318 2°48.484 7.9 36 10.8 99850 58
2011-10-25 07:45:40 51°12.311 2°48.464 8.9 22 10.7 99850 57
2011-10-25 07:45:46 51°12.301 2°48.435 7 36 10.7 99850 57
2011-10-25 07:45:51 51°12.293 2°48.41 7.9 28 10.7 99850 57
2011-10-25 07:45:56 51°12.284 2°48.385 8.1 31 10.7 99850 57
2011-10-25 07:46:00 51°12.277 2°48.366 8.5 25 10.8 99850 58
2011-10-25 07:46:06 51°12.267 2°48.337 8.2 38 10.8 99850 58
2011-10-25 07:46:11 51°12.257 2°48.313 8.6 26 10.7 99860 57
2011-10-25 07:46:16 51°12.248 2°48.289 9.4 38 10.7 99860 57
2011-10-25 07:46:20 51°12.24 2°48.271 8 22 10.7 99850 58
2011-10-25 07:46:26 51°12.228 2°48.243 10.2 37 10.7 99850 58
2011-10-25 07:46:31 51°12.219 2°48.221 10 25 10.7 99850 58
2011-10-25 07:46:36 51°12.208 2°48.198 4.1 37 10.7 99850 58
2011-10-25 07:46:40 51°12.201 2°48.18 8.9 19 10.7 99850 58
2011-10-25 07:46:46 51°12.188 2°48.152 8.1 38 10.7 99850 58
2011-10-25 07:46:51 51°12.179 2°48.129 8.1 25 10.8 99850 57
2011-10-25 07:46:56 51°12.17 2°48.105 7.5 36 10.8 99850 57
2011-10-25 07:47:00 51°12.162 2°48.086 8.5 19 10.8 99850 58
2011-10-25 07:47:06 51°12.151 2°48.057 7.9 37 10.8 99850 58
2011-10-25 07:47:11 51°12.143 2°48.033 9 21 10.7 99850 58
2011-10-25 07:47:16 51°12.134 2°48.009 8.6 33 10.7 99850 58
2011-10-25 07:47:21 51°12.126 2°47.984 4.1 25 10.7 99850 58
2011-10-25 07:47:26 51°12.117 2°47.96 8.2 30 10.7 99850 58
2011-10-25 07:47:31 51°12.109 2°47.935 9.6 20 10.8 99850 57
2011-10-25 07:47:36 51°12.101 2°47.91 9.1 37 10.8 99850 57
2011-10-25 07:47:40 51°12.094 2°47.891 9.7 21 10.7 99850 58
2011-10-25 07:47:46 51°12.084 2°47.861 8.8 39 10.7 99850 58
2011-10-25 07:47:51 51°12.075 2°47.837 8.8 27 10.8 99850 58
2011-10-25 07:47:56 51°12.066 2°47.814 10.1 32 10.8 99850 58
2011-10-25 07:48:00 51°12.058 2°47.795 7.3 25 10.7 99850 58
2011-10-25 07:48:06 51°12.047 2°47.767 9.1 31 10.7 99850 58
2011-10-25 07:48:11 51°12.037 2°47.743 8.8 21 10.8 99850 58
2011-10-25 07:48:16 51°12.028 2°47.719 7.5 39 10.8 99850 58
2011-10-25 07:48:20 51°12.021 2°47.701 7.3 25 10.8 99850 57
2011-10-25 07:48:26 51°12.009 2°47.672 9.7 38 10.8 99850 57
2011-10-25 07:48:31 51°12 2°47.649 7.2 23 10.8 99850 58
2011-10-25 07:48:36 51°11.991 2°47.625 7.5 38 10.8 99850 58
2011-10-25 07:48:40 51°11.984 2°47.606 7.7 25 10.8 99850 58
2011-10-25 07:48:46 51°11.973 2°47.577 8.3 35 10.8 99850 58
2011-10-25 07:48:51 51°11.964 2°47.553 9.5 22 10.7 99850 56
2011-10-25 07:48:56 51°11.955 2°47.529 9.7 38 10.7 99850 56
2011-10-25 07:49:00 51°11.948 2°47.51 8.6 22 10.7 99850 58
2011-10-25 07:49:06 51°11.937 2°47.481 9.2 34 10.7 99850 58
2011-10-25 07:49:11 51°11.928 2°47.457 8.4 19 10.8 99850 58
2011-10-25 07:49:16 51°11.919 2°47.433 9.5 36 10.8 99850 58
2011-10-25 07:49:20 51°11.912 2°47.413 8.3 26 10.8 99850 56
2011-10-25 07:49:26 51°11.902 2°47.384 7.2 33 10.8 99850 56
2011-10-25 07:49:31 51°11.893 2°47.359 8.1 20 10.8 99850 57
2011-10-25 07:49:36 51°11.885 2°47.335 9.6 32 10.8 99850 57
2011-10-25 07:49:40 51°11.878 2°47.316 8.9 27 10.8 99850 57
2011-10-25 07:49:46 51°11.868 2°47.286 9.4 35 10.8 99850 57
2011-10-25 07:49:51 51°11.86 2°47.262 8.3 25 10.7 99850 58
2011-10-25 07:49:56 51°11.851 2°47.237 8.1 231 10.7 99850 58
2011-10-25 07:50:00 51°11.844 2°47.218 7.9 25 10.7 99850 58
2011-10-25 07:50:06 51°11.834 2°47.189 7 32 10.7 99850 58
2011-10-25 07:50:11 51°11.825 2°47.165 8.8 27 10.7 99850 58
2011-10-25 07:50:16 51°11.816 2°47.141 8.5 35 10.7 99850 58
2011-10-25 07:50:20 51°11.809 2°47.121 10.1 24 10.7 99850 58
2011-10-25 07:50:25 51°11.801 2°47.097 10.1 30 10.7 99850 58
2011-10-25 07:50:31 51°11.79 2°47.068 7.9 22 10.7 99850 57
2011-10-25 07:50:36 51°11.781 2°47.044 9.5 35 10.7 99850 57
2011-10-25 07:50:40 51°11.775 2°47.025 8.8 26 10.7 99850 58
2011-10-25 07:50:46 51°11.764 2°46.995 9.7 34 10.7 99850 58
2011-10-25 07:50:50 51°11.758 2°46.976 9.1 21 10.7 99850 57
2011-10-25 07:50:56 51°11.747 2°46.947 8 33 10.7 99850 57
2011-10-25 07:51:00 51°11.74 2°46.928 8.2 22 10.7 99850 58
2011-10-25 07:51:06 51°11.73 2°46.899 9.6 35 10.7 99850 58
2011-10-25 07:51:11 51°11.721 2°46.875 9.5 23 10.7 99840 58
2011-10-25 07:51:16 51°11.712 2°46.851 8.7 238 10.7 99840 58
2011-10-25 07:51:20 51°11.705 2°46.832 8.8 22 10.7 99850 58
2011-10-25 07:51:26 51°11.694 2°46.804 8 235 10.7 99850 58
2011-10-25 07:51:31 51°11.685 2°46.78 8.3 28 10.7 99850 57
2011-10-25 07:51:36 51°11.675 2°46.757 9.7 36 10.7 99850 57
2011-10-25 07:51:40 51°11.668 2°46.738 9.5 22 10.7 99850 57
2011-10-25 07:51:46 51°11.656 2°46.71 8.6 35 10.7 99850 57
2011-10-25 07:51:51 51°11.647 2°46.687 9.2 19 10.7 99840 58
2011-10-25 07:51:56 51°11.637 2°46.664 8.4 32 10.7 99840 58
2011-10-25 07:52:01 51°11.627 2°46.641 8.9 25 10.7 99850 57
2011-10-25 07:52:06 51°11.618 2°46.618 9.3 33 10.7 99850 57
2011-10-25 07:52:11 51°11.608 2°46.595 8.8 20 10.7 99840 57
2011-10-25 07:52:16 51°11.599 2°46.571 7.3 37 10.7 99840 57
2011-10-25 07:52:20 51°11.592 2°46.552 7.5 21 10.7 99840 58
2011-10-25 07:52:26 51°11.581 2°46.524 7.4 31 10.7 99840 58
2011-10-25 07:52:31 51°11.572 2°46.5 7.1 19 10.7 99850 58
2011-10-25 07:52:36 51°11.563 2°46.476 7.4 36 10.7 99850 58
2011-10-25 07:52:40 51°11.556 2°46.457 8.9 28 10.7 99850 58
2011-10-25 07:52:46 51°11.546 2°46.428 8.1 33 10.7 99850 58
2011-10-25 07:52:51 51°11.538 2°46.404 7.9 23 10.7 99850 58
2011-10-25 07:52:56 51°11.529 2°46.38 8.1 36 10.7 99850 58
2011-10-25 07:53:00 51°11.523 2°46.36 8.6 24 10.8 99850 57
2011-10-25 07:53:06 51°11.513 2°46.331 9.9 234 10.8 99850 57
2011-10-25 07:53:11 51°11.504 2°46.307 8.1 24 10.7 99850 57
2011-10-25 07:53:16 51°11.496 2°46.283 8.8 33 10.7 99850 57
2011-10-25 07:53:20 51°11.489 2°46.264 7.3 22 10.7 99840 58
2011-10-25 07:53:26 51°11.479 2°46.235 7.7 34 10.7 99840 58
2011-10-25 07:53:31 51°11.471 2°46.211 8.4 19 10.7 99840 58
2011-10-25 07:53:36 51°11.462 2°46.187 7.7 32 10.7 99840 58
2011-10-25 07:53:40 51°11.455 2°46.168 7.5 21 10.7 99850 58
2011-10-25 07:53:46 51°11.444 2°46.14 9.5 235 10.7 99850 58
2011-10-25 07:53:51 51°11.435 2°46.117 9.3 24 10.7 99840 58
2011-10-25 07:53:56 51°11.426 2°46.094 8.9 233 10.7 99840 58
2011-10-25 07:54:00 51°11.418 2°46.076 9.4 25 10.7 99840 58
2011-10-25 07:54:06 51°11.407 2°46.048 9 37 10.7 99840 58
2011-10-25 07:54:11 51°11.397 2°46.025 9.2 28 10.7 99850 57
2011-10-25 07:54:16 51°11.387 2°46.003 8.3 33 10.7 99850 57
2011-10-25 07:54:20 51°11.38 2°45.984 9.5 25 10.7 99840 57
2011-10-25 07:54:26 51°11.369 2°45.957 9.5 35 10.7 99840 57
2011-10-25 07:54:31 51°11.359 2°45.934 9.7 26 10.7 99840 58
2011-10-25 07:54:36 51°11.35 2°45.912 9.8 33 10.7 99840 58
2011-10-25 07:54:40 51°11.342 2°45.893 9.1 25 10.7 99840 56
2011-10-25 07:54:46 51°11.331 2°45.866 7.6 31 10.7 99840 56
2011-10-25 07:54:51 51°11.322 2°45.843 7.6 19 10.7 99840 58
2011-10-25 07:54:56 51°11.311 2°45.821 7.4 31 10.7 99840 58
2011-10-25 07:55:00 51°11.304 2°45.803 4.2 25 10.7 99840 58
2011-10-25 07:55:06 51°11.292 2°45.777 7.7 34 10.7 99840 58
2011-10-25 07:55:11 51°11.282 2°45.755 8.5 23 10.7 99840 57
2011-10-25 07:55:16 51°11.272 2°45.733 8.8 35 10.7 99840 57
2011-10-25 07:55:20 51°11.264 2°45.715 8.7 24 10.7 99840 58
2011-10-25 07:55:26 51°11.252 2°45.689 9.5 33 10.7 99840 58
2011-10-25 07:55:31 51°11.242 2°45.666 8.4 24 10.8 99840 57
2011-10-25 07:55:36 51°11.233 2°45.645 9.1 33 10.8 99840 57
2011-10-25 07:55:40 51°11.225 2°45.627 8.2 24 10.7 99850 58
2011-10-25 07:55:46 51°11.213 2°45.6 9.5 38 10.7 99850 58
2011-10-25 07:55:51 51°11.204 2°45.577 7.5 24 10.8 99840 57
2011-10-25 07:55:56 51°11.195 2°45.555 9.6 30 10.8 99840 57
2011-10-25 07:56:00 51°11.188 2°45.536 9.3 21 10.8 99840 57
2011-10-25 07:56:06 51°11.178 2°45.508 8.6 34 10.8 99840 57
2011-10-25 07:56:11 51°11.169 2°45.485 8.2 24 10.8 99840 57
2011-10-25 07:56:16 51°11.161 2°45.461 8.3 35 10.8 99840 57
2011-10-25 07:56:20 51°11.155 2°45.441 6.7 26 10.8 99840 58
2011-10-25 07:56:26 51°11.145 2°45.413 8.3 232 10.8 99840 58
2011-10-25 07:56:31 51°11.138 2°45.388 8 21 10.8 99840 58
2011-10-25 07:56:36 51°11.13 2°45.365 6.8 36 10.8 99840 58
2011-10-25 07:56:40 51°11.123 2°45.345 6.8 25 10.8 99840 58
2011-10-25 07:56:46 51°11.114 2°45.317 8.5 37 10.8 99840 58
2011-10-25 07:56:51 51°11.105 2°45.293 7.8 22 10.8 99840 57
2011-10-25 07:56:56 51°11.097 2°45.269 8.8 35 10.8 99840 57
2011-10-25 07:57:00 51°11.09 2°45.251 9.3 25 10.8 99840 58
2011-10-25 07:57:05 51°11.083 2°45.227 9.1 31 10.8 99840 58
2011-10-25 07:57:11 51°11.073 2°45.198 7.2 19 10.8 99840 58
2011-10-25 07:57:16 51°11.064 2°45.175 8.5 37 10.8 99840 58
2011-10-25 07:57:20 51°11.058 2°45.156 8.5 21 10.8 99840 56
2011-10-25 07:57:26 51°11.048 2°45.127 9.3 32 10.8 99840 56
2011-10-25 07:57:30 51°11.041 2°45.108 7.6 26 10.8 99840 58
2011-10-25 07:57:36 51°11.031 2°45.08 7.5 233 10.8 99840 58
2011-10-25 07:57:40 51°11.025 2°45.061 7.8 27 10.8 99840 57
2011-10-25 07:57:46 51°11.015 2°45.033 9 35 10.8 99840 57
2011-10-25 07:57:51 51°11.006 2°45.009 9.2 24 10.8 99830 58
2011-10-25 07:57:56 51°10.998 2°44.986 7.9 35 10.8 99830 58
2011-10-25 07:58:00 51°10.991 2°44.967 9 27 10.8 99840 59
2011-10-25 07:58:06 51°10.981 2°44.939 8.7 38 10.8 99840 59
2011-10-25 07:58:11 51°10.973 2°44.916 8 25 10.8 99840 58
2011-10-25 07:58:16 51°10.963 2°44.894 7.8 33 10.8 99840 58
2011-10-25 07:58:20 51°10.956 2°44.876 7.2 27 10.8 99840 58
2011-10-25 07:58:26 51°10.944 2°44.85 8.6 36 10.8 99840 58
2011-10-25 07:58:31 51°10.934 2°44.828 9.3 21 10.8 99840 58
2011-10-25 07:58:36 51°10.924 2°44.807 8.5 36 10.8 99840 58
2011-10-25 07:58:41 51°10.915 2°44.785 7 22 10.8 99840 57
2011-10-25 07:58:46 51°10.904 2°44.764 7.3 36 10.8 99840 57
2011-10-25 07:58:51 51°10.895 2°44.742 8.2 25 10.8 99830 57
2011-10-25 07:58:56 51°10.885 2°44.721 9 36 10.8 99830 57
2011-10-25 07:59:00 51°10.877 2°44.703 8.2 25 10.8 99840 58
2011-10-25 07:59:06 51°10.865 2°44.678 8.3 32 10.8 99840 58
2011-10-25 07:59:11 51°10.856 2°44.656 7.3 25 10.8 99840 58
2011-10-25 07:59:16 51°10.846 2°44.634 9 31 10.8 99840 58
2011-10-25 07:59:20 51°10.839 2°44.616 7.4 20 10.8 99830 58
2011-10-25 07:59:25 51°10.829 2°44.595 7.5 36 10.8 99830 58
2011-10-25 07:59:31 51°10.817 2°44.568 8.2 27 10.8 99840 56
2011-10-25 07:59:36 51°10.808 2°44.547 6.9 37 10.8 99840 56
2011-10-25 07:59:40 51°10.8 2°44.529 8.6 21 10.8 99830 58
2011-10-25 07:59:46 51°10.789 2°44.503 8.5 39 10.8 99830 58
2011-10-25 07:59:51 51°10.78 2°44.481 8.5 28 10.8 99840 59
2011-10-25 07:59:56 51°10.772 2°44.457 7.2 31 10.8 99840 59
2011-10-25 08:00:00 51°10.765 2°44.439 8.5 24 10.8 99840 57
2011-10-25 08:00:06 51°10.755 2°44.411 8.6 36 10.8 99840 57
2011-10-25 08:00:10 51°10.749 2°44.392 9.5 24 10.8 99840 57
2011-10-25 08:00:16 51°10.739 2°44.364 8.6 235 10.8 99840 57
2011-10-25 08:00:20 51°10.733 2°44.345 7.9 23 10.7 99830 58
2011-10-25 08:00:26 51°10.724 2°44.317 8.4 233 10.7 99830 58
2011-10-25 08:00:31 51°10.717 2°44.293 8.1 20 10.8 99840 58
2011-10-25 08:00:36 51°10.709 2°44.27 8.5 34 10.8 99840 58
2011-10-25 08:00:40 51°10.703 2°44.251 8.3 22 10.8 99830 58
2011-10-25 08:00:46 51°10.693 2°44.223 7.3 35 10.8 99830 58
2011-10-25 08:00:51 51°10.685 2°44.2 8 25 10.8 99830 58
2011-10-25 08:00:56 51°10.677 2°44.176 7.9 33 10.8 99830 58
2011-10-25 08:01:00 51°10.671 2°44.158 8 24 10.8 99830 58
2011-10-25 08:01:06 51°10.662 2°44.129 7.7 30 10.8 99830 58
2011-10-25 08:01:11 51°10.653 2°44.106 8.9 20 10.8 99840 58
2011-10-25 08:01:16 51°10.646 2°44.083 10.6 36 10.8 99840 58
2011-10-25 08:01:20 51°10.639 2°44.064 10 20 10.8 99840 57
2011-10-25 08:01:26 51°10.629 2°44.037 8.8 32 10.8 99840 57
2011-10-25 08:01:31 51°10.621 2°44.013 9.2 20 10.8 99840 58
2011-10-25 08:01:36 51°10.613 2°43.991 8.2 235 10.8 99840 58
2011-10-25 08:01:40 51°10.606 2°43.972 9.4 23 10.8 99830 57
2011-10-25 08:01:46 51°10.596 2°43.944 8 34 10.8 99830 57
2011-10-25 08:01:50 51°10.59 2°43.926 9.1 24 10.8 99830 58
2011-10-25 08:01:56 51°10.58 2°43.898 7.9 35 10.8 99830 58
2011-10-25 08:02:00 51°10.573 2°43.88 9.1 21 10.8 99830 58
2011-10-25 08:02:06 51°10.563 2°43.852 8.6 33 10.8 99830 58
2011-10-25 08:02:11 51°10.555 2°43.83 8.5 21 10.8 99830 58
2011-10-25 08:02:16 51°10.546 2°43.807 7.1 233 10.8 99830 58
2011-10-25 08:02:20 51°10.539 2°43.789 7.5 27 10.8 99830 58
2011-10-25 08:02:26 51°10.529 2°43.762 9 33 10.8 99830 58
2011-10-25 08:02:31 51°10.52 2°43.739 8.9 26 10.8 99830 58
2011-10-25 08:02:36 51°10.511 2°43.717 9.8 32 10.8 99830 58
2011-10-25 08:02:40 51°10.504 2°43.699 10.1 27 10.8 99830 56
2011-10-25 08:02:46 51°10.493 2°43.673 8.7 30 10.8 99830 56
2011-10-25 08:02:51 51°10.484 2°43.65 9.1 20 10.8 99830 58
2011-10-25 08:02:56 51°10.475 2°43.629 8.3 37 10.8 99830 58
2011-10-25 08:03:00 51°10.468 2°43.611 7.8 27 10.8 99830 58
2011-10-25 08:03:06 51°10.457 2°43.584 7.9 33 10.8 99830 58
2011-10-25 08:03:11 51°10.447 2°43.563 8.1 20 10.8 99820 58
2011-10-25 08:03:16 51°10.438 2°43.54 9.1 31 10.8 99820 58
2011-10-25 08:03:20 51°10.431 2°43.523 7.8 26 10.8 99830 58
2011-10-25 08:03:26 51°10.42 2°43.496 7 233 10.8 99830 58
2011-10-25 08:03:31 51°10.411 2°43.474 8.1 27 10.8 99830 58
2011-10-25 08:03:36 51°10.402 2°43.452 9.1 37 10.8 99830 58
2011-10-25 08:03:40 51°10.395 2°43.434 8.4 26 10.8 99830 59
2011-10-25 08:03:46 51°10.386 2°43.409 7.6 31 10.8 99830 59
2011-10-25 08:03:51 51°10.378 2°43.388 6.9 23 10.8 99830 58
2011-10-25 08:03:56 51°10.37 2°43.368 6.5 31 10.8 99830 58
2011-10-25 08:04:00 51°10.365 2°43.353 8.6 26 10.8 99830 58
2011-10-25 08:04:06 51°10.356 2°43.331 6.8 237 10.8 99830 58
2011-10-25 08:04:11 51°10.35 2°43.314 7.4 23 10.8 99830 58
2011-10-25 08:04:16 51°10.344 2°43.297 6.4 239 10.8 99830 58
2011-10-25 08:04:20 51°10.339 2°43.284 6.8 27 10.8 99830 57
2011-10-25 08:04:26 51°10.332 2°43.266 6.8 241 10.8 99830 57
2011-10-25 08:04:31 51°10.326 2°43.251 6.5 25 10.8 99830 58
2011-10-25 08:04:36 51°10.32 2°43.237 7.2 242 10.8 99830 58
2011-10-25 08:04:40 51°10.316 2°43.226 7.1 23 10.8 99830 59
2011-10-25 08:04:46 51°10.308 2°43.21 6.6 241 10.8 99830 59
2011-10-25 08:04:51 51°10.303 2°43.197 6.3 27 10.8 99830 59
2011-10-25 08:04:56 51°10.297 2°43.184 6.4 245 10.8 99830 59
2011-10-25 08:05:00 51°10.292 2°43.174 6.6 24 10.8 99830 58
2011-10-25 08:05:06 51°10.286 2°43.159 7.3 241 10.8 99830 58
2011-10-25 08:05:11 51°10.28 2°43.146 6.2 23 10.8 99830 58
2011-10-25 08:05:16 51°10.275 2°43.134 6.9 242 10.8 99830 58
2011-10-25 08:05:20 51°10.27 2°43.124 6.7 20 10.8 99840 56
2011-10-25 08:05:26 51°10.264 2°43.109 7.4 244 10.8 99840 56
2011-10-25 08:05:31 51°10.259 2°43.097 7.1 244 10.8 99830 59
2011-10-25 08:05:36 51°10.254 2°43.085 6.9 242 10.8 99830 59
2011-10-25 08:05:40 51°10.249 2°43.075 6.4 19 10.8 99830 58
2011-10-25 08:05:46 51°10.243 2°43.061 6.5 244 10.8 99830 58
2011-10-25 08:05:51 51°10.239 2°43.05 7.1 24 10.8 99830 58
2011-10-25 08:05:56 51°10.234 2°43.039 6.9 247 10.8 99830 58
2011-10-25 08:06:00 51°10.231 2°43.031 7.3 20 10.8 99840 59
2011-10-25 08:06:05 51°10.227 2°43.022 6.9 251 10.8 99840 59
2011-10-25 08:06:11 51°10.223 2°43.01 3.3 20 10.8 99830 58
2011-10-25 08:06:16 51°10.219 2°43.001 4.9 251 10.8 99830 58
2011-10-25 08:06:20 51°10.218 2°42.994 5.2 249 10.8 99830 58
2011-10-25 08:06:26 51°10.215 2°42.984 5.2 259 10.8 99830 58
2011-10-25 08:06:31 51°10.213 2°42.976 5.1 261 10.8 99830 58
2011-10-25 08:06:36 51°10.212 2°42.969 5.7 258 10.8 99830 58
2011-10-25 08:06:40 51°10.211 2°42.962 6.6 262 10.8 99840 57
2011-10-25 08:06:46 51°10.209 2°42.954 3.7 263 10.8 99840 57
2011-10-25 08:06:51 51°10.209 2°42.946 4.3 262 10.8 99840 59
2011-10-25 08:06:56 51°10.208 2°42.939 3.2 263 10.8 99840 59
2011-10-25 08:07:00 51°10.208 2°42.934 3.8 264 10.8 99830 59
2011-10-25 08:07:06 51°10.207 2°42.926 4.8 263 10.8 99830 59
2011-10-25 08:07:11 51°10.207 2°42.92 4.2 264 10.8 99840 59
2011-10-25 08:07:16 51°10.206 2°42.913 3.7 269 10.8 99840 59
2011-10-25 08:07:20 51°10.206 2°42.908 4.3 269 10.8 99830 57
2011-10-25 08:07:26 51°10.206 2°42.901 4.1 268 10.8 99830 57
2011-10-25 08:07:31 51°10.206 2°42.895 4.3 28 10.8 99840 58
2011-10-25 08:07:36 51°10.206 2°42.889 3.1 264 10.8 99840 58
2011-10-25 08:07:40 51°10.206 2°42.885 3.3 266 10.8 99840 58
2011-10-25 08:07:46 51°10.206 2°42.878 4.4 270 10.8 99840 58
2011-10-25 08:07:51 51°10.206 2°42.872 3.3 261 10.8 99840 57
2011-10-25 08:07:56 51°10.206 2°42.867 3.9 265 10.8 99840 57
2011-10-25 08:08:00 51°10.206 2°42.862 4.2 270 10.8 99840 57
2011-10-25 08:08:06 51°10.206 2°42.856 5 269 10.8 99840 57
2011-10-25 08:08:11 51°10.206 2°42.851 4.7 269 10.8 99840 59
2011-10-25 08:08:16 51°10.206 2°42.846 5.2 268 10.8 99840 59
2011-10-25 08:08:20 51°10.206 2°42.842 4 266 10.8 99840 57
2011-10-25 08:08:25 51°10.206 2°42.837 4.4 262 10.8 99840 57
2011-10-25 08:08:31 51°10.205 2°42.831 3.6 265 10.9 99840 59
2011-10-25 08:08:36 51°10.205 2°42.827 4.3 264 10.9 99840 59
2011-10-25 08:08:40 51°10.205 2°42.824 3.1 264 10.8 99840 59
2011-10-25 08:08:46 51°10.204 2°42.82 3.5 265 10.8 99840 59
2011-10-25 08:08:50 51°10.204 2°42.818 3.8 265 10.8 99840 59
2011-10-25 08:08:56 51°10.204 2°42.815 4.8 263 10.8 99840 59
2011-10-25 08:09:00 51°10.204 2°42.814 4.6 263 10.8 99840 59
2011-10-25 08:09:06 51°10.204 2°42.812 4.2 266 10.8 99840 59
2011-10-25 08:09:11 51°10.203 2°42.811 4.3 264 10.8 99840 59
2011-10-25 08:09:16 51°10.203 2°42.81 4.2 264 10.8 99840 59
2011-10-25 08:09:20 51°10.203 2°42.81 4.1 263 10.8 99840 57
2011-10-25 08:09:26 51°10.204 2°42.81 4.5 263 10.8 99840 57
2011-10-25 08:09:31 51°10.204 2°42.81 4 265 10.8 99840 59
2011-10-25 08:09:36 51°10.204 2°42.81 4.5 263 10.8 99840 59
2011-10-25 08:09:40 51°10.204 2°42.811 4.6 263 10.8 99840 58
2011-10-25 08:09:46 51°10.204 2°42.811 4.8 262 10.8 99840 58
2011-10-25 08:09:51 51°10.204 2°42.811 6.6 262 10.8 99840 59
2011-10-25 08:09:56 51°10.204 2°42.812 4.2 265 10.8 99840 59
2011-10-25 08:10:00 51°10.204 2°42.812 3.4 265 10.8 99840 58
2011-10-25 08:10:06 51°10.205 2°42.812 4.2 262 10.8 99840 58
2011-10-25 08:10:11 51°10.205 2°42.813 5.5 264 10.8 99840 59
2011-10-25 08:10:16 51°10.205 2°42.813 3.3 266 10.8 99840 59
2011-10-25 08:10:20 51°10.205 2°42.813 4.6 263 10.8 99840 57
2011-10-25 08:10:26 51°10.206 2°42.813 5.7 262 10.8 99840 57
2011-10-25 08:10:31 51°10.206 2°42.814 5.1 260 10.8 99840 59
2011-10-25 08:10:36 51°10.206 2°42.814 3.7 265 10.8 99840 59
2011-10-25 08:10:40 51°10.206 2°42.814 4.4 264 10.8 99840 57
2011-10-25 08:10:46 51°10.207 2°42.815 4.4 262 10.8 99840 57
2011-10-25 08:10:51 51°10.207 2°42.815 6.2 262 10.8 99840 59
2011-10-25 08:10:56 51°10.207 2°42.816 5.3 262 10.8 99840 59
2011-10-25 08:11:00 51°10.208 2°42.816 4.7 263 10.8 99840 58
2011-10-25 08:11:06 51°10.208 2°42.816 5.1 262 10.8 99840 58
2011-10-25 08:11:11 51°10.208 2°42.817 5.7 262 10.8 99830 57
2011-10-25 08:11:16 51°10.209 2°42.817 4.8 264 10.8 99830 57
2011-10-25 08:11:20 51°10.209 2°42.817 6.9 261 10.8 99830 58
2011-10-25 08:11:26 51°10.209 2°42.818 6.3 259 10.8 99830 58
2011-10-25 08:11:31 51°10.21 2°42.818 5.9 260 10.8 99830 57
2011-10-25 08:11:36 51°10.21 2°42.819 6.7 260 10.8 99830 57
2011-10-25 08:11:40 51°10.21 2°42.819 5.9 261 10.8 99840 59
2011-10-25 08:11:46 51°10.211 2°42.819 5.8 260 10.8 99840 59
2011-10-25 08:11:51 51°10.211 2°42.819 6.1 262 10.8 99840 58
2011-10-25 08:11:56 51°10.211 2°42.82 4 261 10.8 99840 58
2011-10-25 08:12:00 51°10.211 2°42.82 5.9 262 10.8 99840 59
2011-10-25 08:12:06 51°10.212 2°42.821 7.2 259 10.8 99840 59
2011-10-25 08:12:11 51°10.212 2°42.821 6.1 260 10.8 99830 59
2011-10-25 08:12:16 51°10.212 2°42.821 6.2 261 10.8 99830 59
2011-10-25 08:12:20 51°10.213 2°42.822 5.5 261 10.8 99840 57
2011-10-25 08:12:26 51°10.213 2°42.822 3.3 259 10.8 99840 57
2011-10-25 08:12:31 51°10.213 2°42.822 6.6 258 10.8 99840 57
2011-10-25 08:12:36 51°10.214 2°42.823 5.7 256 10.8 99840 57
2011-10-25 08:12:40 51°10.214 2°42.823 6.6 256 10.8 99830 58
2011-10-25 08:12:46 51°10.215 2°42.824 6.3 259 10.8 99830 58
2011-10-25 08:12:51 51°10.215 2°42.824 5.7 256 10.8 99830 59
2011-10-25 08:12:56 51°10.215 2°42.824 5.7 256 10.8 99830 59
2011-10-25 08:13:00 51°10.216 2°42.825 6.6 259 10.8 99840 57
2011-10-25 08:13:06 51°10.216 2°42.825 6.5 256 10.8 99840 57
2011-10-25 08:13:11 51°10.216 2°42.826 5.9 255 10.8 99830 57